This is the latest recevied weather packets stored in our database for station/object N5GAH-13. If no packets are shown the sender has not sent any weather packets the latest 10 day(s).
| Time | Temp. | Humidity | Pressure | Rain* | Wind** | Luminosity | Snow |
|---|---|---|---|---|---|---|---|
| 1777569810 | 12.78° C | 73% | 1020.4 hPa | 0 mm | - | - | - |
| 1777568011 | 12.78° C | 73% | 1020.7 hPa | 0 mm | - | - | - |
| 1777566210 | 12.78° C | 75% | 1020.2 hPa | 0 mm | - | - | - |
| 1777564410 | 12.78° C | 74% | 1020.1 hPa | 0 mm | - | - | - |
| 1777562610 | 12.22° C | 75% | 1019.9 hPa | 0 mm | - | - | - |
| 1777560810 | 12.22° C | 78% | 1019.5 hPa | 0 mm | - | - | - |
| 1777559010 | 12.22° C | 79% | 1019.2 hPa | 0 mm | - | - | - |
| 1777557210 | 12.22° C | 78% | 1019.1 hPa | 0 mm | - | - | - |
| 1777553609 | 11.67° C | 75% | 1018.9 hPa | 0 mm | - | - | - |
| 1777551810 | 11.67° C | 74% | 1019.1 hPa | 0 mm | - | - | - |
| 1777550011 | 11.67° C | 73% | 1019 hPa | 0 mm | - | - | - |
| 1777548210 | 11.11° C | 73% | 1019.2 hPa | 0 mm | - | - | - |
| 1777546409 | 11.11° C | 72% | 1019 hPa | 0 mm | - | - | - |
| 1777544609 | 11.11° C | 71% | 1018.7 hPa | 0 mm | - | - | - |
| 1777542811 | 11.11° C | 70% | 1018.7 hPa | 0 mm | - | - | - |
| 1777541011 | 11.11° C | 70% | 1019.1 hPa | 0 mm | - | - | - |
| 1777539210 | 11.11° C | 70% | 1019.2 hPa | 0 mm | - | - | - |
| 1777537409 | 11.67° C | 69% | 1019.1 hPa | 0 mm | - | - | - |
| 1777535611 | 11.67° C | 69% | 1019.3 hPa | 0 mm | - | - | - |
| 1777533811 | 12.22° C | 67% | 1019.6 hPa | 0 mm | - | - | - |
| 1777532010 | 12.22° C | 65% | 1019.8 hPa | 0 mm | - | - | - |
| 1777530209 | 12.78° C | 63% | 1019.9 hPa | 0 mm | - | - | - |
| 1777528411 | 13.33° C | 63% | 1020.1 hPa | 0 mm | - | - | - |
| 1777526610 | 13.33° C | 61% | 1019.8 hPa | 0 mm | - | - | - |
| 1777524809 | 13.89° C | 61% | 1020 hPa | 0 mm | - | - | - |
* Rain latest hour (hover to see other rain measurements)
** Current wind speed in m/s (hover to see current wind gust speed)